Tracking 18987 objects as of 25-Feb-2018
HD Live streaming from Space Station
objects crossing your sky now

WESTFORD NEEDLES

Track WESTFORD NEEDLES now!
10-day predictions
WESTFORD NEEDLES is classified as:


NORAD ID: 2381
Int'l Code: 1963-014AB
Perigee: 2,613.5 km
Apogee: 4,633.8 km
Inclination: 87.1 °
Period: 165.7 minutes
Semi major axis: 9994 km
RCS: 0.2808 m2 (medium)
Launch date: May 9, 1963
Source: United States (US)
Launch site: AIR FORCE WESTERN TEST RANGE (AFWTR)
aabbcc
Your satellite tracking list
Your tracking list is empty




NASA's NSSDC Master Catalog

Two Line Element Set (TLE):
1 02381U 63014AB  18053.43107942  .00000025  00000-0  64764-2 0  9991
2 02381  87.0971  51.5103 1010699 238.4960 111.3301  8.68859207660781
Source of the keplerian elements: AFSPC